Location: Poughquag
(41.6090°N, 73.6820°W)
Time: 12:26:32
(UTC-04:00)

Tiros 1 despin weight - Pass Details

Date: 02 June 2020
Orbit: 593 x 642 km, 48.2° (Epoch: 07 July)

Event Time Altitude Azimuth Distance (km) Brightness Sun altitude
Rises 16:42:11 0° 293° (WNW) 2,876 ? 38.7°
Reaches altitude 10° 16:44:41 10° 283° (WNW) 1,959 ? 38.3°
Maximum altitude 16:48:39 32° 221° (SW) 1,047 ? 37.5°
Drops below altitude 10° 16:52:35 10° 158° (SSE) 1,927 ? 36.8°
Sets 16:55:01 0° 148° (SSE) 2,820 ? 36.3°
